Year,Month,Day,Hour,Minute,Value (Times are PST for windspeed in km/hr)
2013,03,21,00,00,15.70
2013,03,21,00,01,16.50
2013,03,21,00,02,23.90
2013,03,21,00,03,10.60
2013,03,21,00,04,17.90
2013,03,21,00,05,10.30
2013,03,21,00,06,9.80
2013,03,21,00,07,8.40
2013,03,21,00,08,12.30
2013,03,21,00,09,18.20
2013,03,21,00,10,15.80
2013,03,21,00,11,21.20
2013,03,21,00,12,17.90
2013,03,21,00,13,23.40
2013,03,21,00,14,23.00
2013,03,21,00,15,15.80
2013,03,21,00,16,14.10
2013,03,21,00,17,14.30
2013,03,21,00,18,14.60
2013,03,21,00,19,21.10
2013,03,21,00,20,14.30
2013,03,21,00,21,12.80
2013,03,21,00,22,24.90
2013,03,21,00,23,24.60
2013,03,21,00,24,18.70
2013,03,21,00,25,16.10
2013,03,21,00,26,24.10
2013,03,21,00,27,18.00
2013,03,21,00,28,18.40
2013,03,21,00,29,15.20
2013,03,21,00,30,26.20
2013,03,21,00,31,21.20
2013,03,21,00,32,20.90
2013,03,21,00,33,28.40
2013,03,21,00,34,15.00
2013,03,21,00,35,28.10
2013,03,21,00,36,25.20
2013,03,21,00,37,27.00
2013,03,21,00,38,28.40
2013,03,21,00,39,18.60
2013,03,21,00,40,20.70
2013,03,21,00,41,22.20
2013,03,21,00,42,29.80
2013,03,21,00,43,32.00
2013,03,21,00,44,33.10
2013,03,21,00,45,30.00
2013,03,21,00,46,22.20
2013,03,21,00,47,22.40
2013,03,21,00,48,27.40
2013,03,21,00,49,28.50
2013,03,21,00,50,21.30
2013,03,21,00,51,19.10
2013,03,21,00,52,20.50
2013,03,21,00,53,18.10
2013,03,21,00,54,21.70
2013,03,21,00,55,20.80
2013,03,21,00,56,9.70
2013,03,21,00,57,22.70
2013,03,21,00,58,24.10
2013,03,21,00,59,30.40
2013,03,21,01,00,18.00
2013,03,21,01,01,21.30
2013,03,21,01,02,20.80
2013,03,21,01,03,22.00
2013,03,21,01,04,19.60
2013,03,21,01,05,22.10
2013,03,21,01,06,19.50
2013,03,21,01,07,18.30
2013,03,21,01,08,21.40
2013,03,21,01,09,19.60
2013,03,21,01,10,26.60
2013,03,21,01,11,23.00
2013,03,21,01,12,17.40
2013,03,21,01,13,22.20
2013,03,21,01,14,22.60
2013,03,21,01,15,13.40
2013,03,21,01,16,18.00
2013,03,21,01,17,15.90
2013,03,21,01,18,17.60
2013,03,21,01,19,18.50
2013,03,21,01,20,25.50
2013,03,21,01,21,15.30
2013,03,21,01,22,15.40
2013,03,21,01,23,10.00
2013,03,21,01,24,16.70
2013,03,21,01,25,17.20
2013,03,21,01,26,12.10
2013,03,21,01,27,13.60
2013,03,21,01,28,12.50
2013,03,21,01,29,15.20
2013,03,21,01,30,20.40
2013,03,21,01,31,14.60
2013,03,21,01,32,8.10
2013,03,21,01,33,16.20
2013,03,21,01,34,6.50
2013,03,21,01,35,4.90
2013,03,21,01,36,4.10
2013,03,21,01,37,1.80
2013,03,21,01,38,11.10
2013,03,21,01,39,17.30
2013,03,21,01,40,18.20
2013,03,21,01,41,13.60
2013,03,21,01,42,15.80
2013,03,21,01,43,11.60
2013,03,21,01,44,15.40
2013,03,21,01,45,18.30
2013,03,21,01,46,9.40
2013,03,21,01,47,15.20
2013,03,21,01,48,13.40
2013,03,21,01,49,10.00
2013,03,21,01,50,7.80
2013,03,21,01,51,5.80
2013,03,21,01,52,12.90
2013,03,21,01,53,11.70
2013,03,21,01,54,12.60
2013,03,21,01,55,8.40
2013,03,21,01,56,6.00
2013,03,21,01,57,14.90
2013,03,21,01,58,8.30
2013,03,21,01,59,8.80
2013,03,21,02,00,7.10
2013,03,21,02,01,11.90
2013,03,21,02,02,6.20
2013,03,21,02,03,5.80
2013,03,21,02,04,13.80
2013,03,21,02,05,11.60
2013,03,21,02,06,7.30
2013,03,21,02,07,7.40
2013,03,21,02,08,17.10
2013,03,21,02,09,8.40
2013,03,21,02,10,11.40
2013,03,21,02,11,10.30
2013,03,21,02,12,11.40
2013,03,21,02,13,16.60
2013,03,21,02,14,16.10
2013,03,21,02,15,15.50
2013,03,21,02,16,6.50
2013,03,21,02,17,11.40
2013,03,21,02,18,8.80
2013,03,21,02,19,12.00
2013,03,21,02,20,7.50
2013,03,21,02,21,3.60
2013,03,21,02,22,8.70
2013,03,21,02,23,18.60
2013,03,21,02,24,20.80
2013,03,21,02,25,17.90
2013,03,21,02,26,10.10
2013,03,21,02,27,15.90
2013,03,21,02,28,14.30
2013,03,21,02,29,7.00
2013,03,21,02,30,12.10
2013,03,21,02,31,17.40
2013,03,21,02,32,14.10
2013,03,21,02,33,11.20
2013,03,21,02,34,13.40
2013,03,21,02,35,6.60
2013,03,21,02,36,8.60
2013,03,21,02,37,7.20
2013,03,21,02,38,4.20
2013,03,21,02,39,9.90
2013,03,21,02,40,17.30
2013,03,21,02,41,19.60
2013,03,21,02,42,14.70
2013,03,21,02,43,16.80
2013,03,21,02,44,17.00
2013,03,21,02,45,11.40
2013,03,21,02,46,15.20
2013,03,21,02,47,16.50
2013,03,21,02,48,12.40
2013,03,21,02,49,9.30
2013,03,21,02,50,8.40
2013,03,21,02,51,10.20
2013,03,21,02,52,12.30
2013,03,21,02,53,18.50
2013,03,21,02,54,8.00
2013,03,21,02,55,8.20
2013,03,21,02,56,12.70
2013,03,21,02,57,15.20
2013,03,21,02,58,16.00
2013,03,21,02,59,6.80
2013,03,21,03,00,11.90
2013,03,21,03,01,20.70
2013,03,21,03,02,15.50
2013,03,21,03,03,11.80
2013,03,21,03,04,17.40
2013,03,21,03,05,17.50
2013,03,21,03,06,16.30
2013,03,21,03,07,9.60
2013,03,21,03,08,8.80
2013,03,21,03,09,12.60
2013,03,21,03,10,14.40
2013,03,21,03,11,19.10
2013,03,21,03,12,13.00
2013,03,21,03,13,17.10
2013,03,21,03,14,19.20
2013,03,21,03,15,13.70
2013,03,21,03,16,15.50
2013,03,21,03,17,16.90
2013,03,21,03,18,11.30
2013,03,21,03,19,10.90
2013,03,21,03,20,8.20
2013,03,21,03,21,12.60
2013,03,21,03,22,6.90
2013,03,21,03,23,8.10
2013,03,21,03,24,15.60
2013,03,21,03,25,10.50
2013,03,21,03,26,11.00
2013,03,21,03,27,16.70
2013,03,21,03,28,10.80
2013,03,21,03,29,14.40
2013,03,21,03,30,15.30
2013,03,21,03,31,5.80
2013,03,21,03,32,9.70
2013,03,21,03,33,14.10
2013,03,21,03,34,15.00
2013,03,21,03,35,10.80
2013,03,21,03,36,10.80
2013,03,21,03,37,17.40
2013,03,21,03,38,10.70
2013,03,21,03,39,12.10
2013,03,21,03,40,14.40
2013,03,21,03,41,15.00
2013,03,21,03,42,8.90
2013,03,21,03,43,6.10
2013,03,21,03,44,14.10
2013,03,21,03,45,15.20
2013,03,21,03,46,12.00
2013,03,21,03,47,11.00
2013,03,21,03,48,10.00
2013,03,21,03,49,5.20
2013,03,21,03,50,6.70
2013,03,21,03,51,12.60
2013,03,21,03,52,11.80
2013,03,21,03,53,13.60
2013,03,21,03,54,6.50
2013,03,21,03,55,9.10
2013,03,21,03,56,12.60
2013,03,21,03,57,7.20
2013,03,21,03,58,7.80
2013,03,21,03,59,5.80
2013,03,21,04,00,3.10
2013,03,21,04,01,7.40
2013,03,21,04,02,5.80
2013,03,21,04,03,4.20
2013,03,21,04,04,10.40
2013,03,21,04,05,6.80
2013,03,21,04,06,5.90
2013,03,21,04,07,4.80
2013,03,21,04,08,8.80
2013,03,21,04,09,5.40
2013,03,21,04,10,11.10
2013,03,21,04,11,8.00
2013,03,21,04,12,6.90
2013,03,21,04,13,8.50
2013,03,21,04,14,8.50
2013,03,21,04,15,7.00
2013,03,21,04,16,2.40
2013,03,21,04,17,6.60
2013,03,21,04,18,4.00
2013,03,21,04,19,7.80
2013,03,21,04,20,3.70
2013,03,21,04,21,6.10
2013,03,21,04,22,4.80
2013,03,21,04,23,4.20
2013,03,21,04,24,5.10
2013,03,21,04,25,6.30
2013,03,21,04,26,3.10
2013,03,21,04,27,5.10
2013,03,21,04,28,1.50
2013,03,21,04,29,5.80
2013,03,21,04,30,12.80
2013,03,21,04,31,13.30
2013,03,21,04,32,11.30
2013,03,21,04,33,9.30
2013,03,21,04,34,7.50
2013,03,21,04,35,7.20
2013,03,21,04,36,12.50
2013,03,21,04,37,12.30
2013,03,21,04,38,15.30
2013,03,21,04,39,18.20
2013,03,21,04,40,17.30
2013,03,21,04,41,18.30
2013,03,21,04,42,16.20
2013,03,21,04,43,10.90
2013,03,21,04,44,18.10
2013,03,21,04,45,13.30
2013,03,21,04,46,16.30
2013,03,21,04,47,10.10
2013,03,21,04,48,13.90
2013,03,21,04,49,23.80
2013,03,21,04,50,20.70
2013,03,21,04,51,11.70
2013,03,21,04,52,9.50
2013,03,21,04,53,13.00
2013,03,21,04,54,5.90
2013,03,21,04,55,4.00
2013,03,21,04,56,14.00
2013,03,21,04,57,14.80
2013,03,21,04,58,9.70
2013,03,21,04,59,3.10
2013,03,21,05,00,8.70
2013,03,21,05,01,11.00
2013,03,21,05,02,9.80
2013,03,21,05,03,9.40
2013,03,21,05,04,8.30
2013,03,21,05,05,7.60
2013,03,21,05,06,8.10
2013,03,21,05,07,7.50
2013,03,21,05,08,3.40
2013,03,21,05,09,7.10
2013,03,21,05,10,6.60
2013,03,21,05,11,2.40
2013,03,21,05,12,6.50
2013,03,21,05,13,9.80
2013,03,21,05,14,8.80
2013,03,21,05,15,6.50
2013,03,21,05,16,4.50
2013,03,21,05,17,9.80
2013,03,21,05,18,8.80
2013,03,21,05,19,9.90
2013,03,21,05,20,7.80
2013,03,21,05,21,12.90
2013,03,21,05,22,7.50
2013,03,21,05,23,7.10
2013,03,21,05,24,6.30
2013,03,21,05,25,9.70
2013,03,21,05,26,8.40
2013,03,21,05,27,14.80
2013,03,21,05,28,11.30
2013,03,21,05,29,10.20
2013,03,21,05,30,13.40
2013,03,21,05,31,13.10
2013,03,21,05,32,12.10
2013,03,21,05,33,9.50
2013,03,21,05,34,8.40
2013,03,21,05,35,14.10
2013,03,21,05,36,15.10
2013,03,21,05,37,13.70
2013,03,21,05,38,14.50
2013,03,21,05,39,11.90
2013,03,21,05,40,12.40
2013,03,21,05,41,13.50
2013,03,21,05,42,9.70
2013,03,21,05,43,6.60
2013,03,21,05,44,9.80
2013,03,21,05,45,16.20
2013,03,21,05,46,13.20
2013,03,21,05,47,12.90
2013,03,21,05,48,20.20
2013,03,21,05,49,14.40
2013,03,21,05,50,10.80
2013,03,21,05,51,14.40
2013,03,21,05,52,7.50
2013,03,21,05,53,13.90
2013,03,21,05,54,10.50
2013,03,21,05,55,10.20
2013,03,21,05,56,16.50
2013,03,21,05,57,13.40
2013,03,21,05,58,13.80
2013,03,21,05,59,17.70
2013,03,21,06,00,15.20
2013,03,21,06,01,7.70
2013,03,21,06,02,13.60
2013,03,21,06,03,17.30
2013,03,21,06,04,13.40
2013,03,21,06,05,12.80
2013,03,21,06,06,13.70
2013,03,21,06,07,10.50
2013,03,21,06,08,17.90
2013,03,21,06,09,15.20
2013,03,21,06,10,17.40
2013,03,21,06,11,12.50
2013,03,21,06,12,8.10
2013,03,21,06,13,15.80
2013,03,21,06,14,13.00
2013,03,21,06,15,11.50
2013,03,21,06,16,10.90
2013,03,21,06,17,15.30
2013,03,21,06,18,9.60
2013,03,21,06,19,13.30
2013,03,21,06,20,19.70
2013,03,21,06,21,17.90
2013,03,21,06,22,17.20
2013,03,21,06,23,16.90
2013,03,21,06,24,12.40
2013,03,21,06,25,20.50
2013,03,21,06,26,12.60
2013,03,21,06,27,15.10
2013,03,21,06,28,15.90
2013,03,21,06,29,14.60
2013,03,21,06,30,13.50
2013,03,21,06,31,17.50
2013,03,21,06,32,16.20
2013,03,21,06,33,18.00
2013,03,21,06,34,16.30
2013,03,21,06,35,18.50
2013,03,21,06,36,20.60
2013,03,21,06,37,15.90
2013,03,21,06,38,10.00
2013,03,21,06,39,11.30
2013,03,21,06,40,15.30
2013,03,21,06,41,16.70
2013,03,21,06,42,16.60
2013,03,21,06,43,18.40
2013,03,21,06,44,17.00
2013,03,21,06,45,17.10
2013,03,21,06,46,11.80
2013,03,21,06,47,15.40
2013,03,21,06,48,13.40
2013,03,21,06,49,13.30
2013,03,21,06,50,12.40
2013,03,21,06,51,11.80
2013,03,21,06,52,13.10
2013,03,21,06,53,8.90
2013,03,21,06,54,16.70
2013,03,21,06,55,11.20
2013,03,21,06,56,8.60
2013,03,21,06,57,17.10
2013,03,21,06,58,16.10
2013,03,21,06,59,14.80
2013,03,21,07,00,12.60
2013,03,21,07,01,13.60
2013,03,21,07,02,14.20
2013,03,21,07,03,11.20
2013,03,21,07,04,18.50
2013,03,21,07,05,14.40
2013,03,21,07,06,14.10
2013,03,21,07,07,12.80
2013,03,21,07,08,11.70
2013,03,21,07,09,17.60
2013,03,21,07,10,10.50
2013,03,21,07,11,9.00
2013,03,21,07,12,6.00
2013,03,21,07,13,8.30
2013,03,21,07,14,13.00
2013,03,21,07,15,10.00
2013,03,21,07,16,15.30
2013,03,21,07,17,9.40
2013,03,21,07,18,8.60
2013,03,21,07,19,6.70
2013,03,21,07,20,12.30
2013,03,21,07,21,16.30
2013,03,21,07,22,8.70
2013,03,21,07,23,8.30
2013,03,21,07,24,9.70
2013,03,21,07,25,6.60
2013,03,21,07,26,12.80
2013,03,21,07,27,13.20
2013,03,21,07,28,12.70
2013,03,21,07,29,14.60
2013,03,21,07,30,7.60
2013,03,21,07,31,10.90
2013,03,21,07,32,13.70
2013,03,21,07,33,5.30
2013,03,21,07,34,7.70
2013,03,21,07,35,9.20
2013,03,21,07,36,13.30
2013,03,21,07,37,5.30
2013,03,21,07,38,6.50
2013,03,21,07,39,9.20
2013,03,21,07,40,4.70
2013,03,21,07,41,12.90
2013,03,21,07,42,15.20
2013,03,21,07,43,12.30
2013,03,21,07,44,15.80
2013,03,21,07,45,17.80
2013,03,21,07,46,13.30
2013,03,21,07,47,10.10
2013,03,21,07,48,5.30
2013,03,21,07,49,5.00
2013,03,21,07,50,5.10
2013,03,21,07,51,5.00
2013,03,21,07,52,6.40
2013,03,21,07,53,8.50
2013,03,21,07,54,4.40
2013,03,21,07,55,7.00
2013,03,21,07,56,8.80
2013,03,21,07,57,6.80
2013,03,21,07,58,7.30
2013,03,21,07,59,10.60
2013,03,21,08,00,14.00
2013,03,21,08,01,13.30
2013,03,21,08,02,10.30
2013,03,21,08,03,5.30
2013,03,21,08,04,10.60
2013,03,21,08,05,16.80
2013,03,21,08,06,10.00
2013,03,21,08,07,6.70
2013,03,21,08,08,10.50
2013,03,21,08,09,14.30
2013,03,21,08,10,12.10
2013,03,21,08,11,10.80
2013,03,21,08,12,9.20
2013,03,21,08,13,15.80
2013,03,21,08,14,17.30
2013,03,21,08,15,11.10
2013,03,21,08,16,19.00
2013,03,21,08,17,14.60
2013,03,21,08,18,9.90
2013,03,21,08,19,10.90
2013,03,21,08,20,13.90
2013,03,21,08,21,17.90
2013,03,21,08,22,16.50
2013,03,21,08,23,12.80
2013,03,21,08,24,21.70
2013,03,21,08,25,14.90
2013,03,21,08,26,11.70
2013,03,21,08,27,10.00
2013,03,21,08,28,12.70
2013,03,21,08,29,18.60
2013,03,21,08,30,17.60
2013,03,21,08,31,17.10
2013,03,21,08,32,15.30
2013,03,21,08,33,6.90
2013,03,21,08,34,11.00
2013,03,21,08,35,7.50
2013,03,21,08,36,10.00
2013,03,21,08,37,19.00
2013,03,21,08,38,14.00
2013,03,21,08,39,19.80
2013,03,21,08,40,13.00
2013,03,21,08,41,14.30
2013,03,21,08,42,17.20
2013,03,21,08,43,14.80
2013,03,21,08,44,18.50
2013,03,21,08,45,14.60
2013,03,21,08,46,17.90
2013,03,21,08,47,18.10
2013,03,21,08,48,15.00
2013,03,21,08,49,22.40
2013,03,21,08,50,21.40
2013,03,21,08,51,19.50
2013,03,21,08,52,11.80
2013,03,21,08,53,23.00
2013,03,21,08,54,16.20
2013,03,21,08,55,16.10
2013,03,21,08,56,14.40
2013,03,21,08,57,19.00
2013,03,21,08,58,11.30
2013,03,21,08,59,16.20
2013,03,21,09,00,21.70
2013,03,21,09,01,11.30
2013,03,21,09,02,18.00
2013,03,21,09,03,12.90
2013,03,21,09,04,12.20
2013,03,21,09,05,21.00
2013,03,21,09,06,20.90
2013,03,21,09,07,20.10
2013,03,21,09,08,11.40
2013,03,21,09,09,14.40
2013,03,21,09,10,8.20
2013,03,21,09,11,19.30
2013,03,21,09,12,13.40
2013,03,21,09,13,7.90
2013,03,21,09,14,12.10
2013,03,21,09,15,15.50
2013,03,21,09,16,22.20
2013,03,21,09,17,23.40
2013,03,21,09,18,22.70
2013,03,21,09,19,15.50
2013,03,21,09,20,22.50
2013,03,21,09,21,12.60
2013,03,21,09,22,16.30
2013,03,21,09,23,20.00
2013,03,21,09,24,15.90
2013,03,21,09,25,14.50
2013,03,21,09,26,16.90
2013,03,21,09,27,12.40
2013,03,21,09,28,20.90
2013,03,21,09,29,17.60
2013,03,21,09,30,14.60
2013,03,21,09,31,13.00
2013,03,21,09,32,15.90
2013,03,21,09,33,22.90
2013,03,21,09,34,17.80
2013,03,21,09,35,11.60
2013,03,21,09,36,12.70
2013,03,21,09,37,13.50
2013,03,21,09,38,16.40
2013,03,21,09,39,15.60
2013,03,21,09,40,18.70
2013,03,21,09,41,16.60
2013,03,21,09,42,19.70
2013,03,21,09,43,15.80
2013,03,21,09,44,10.50
2013,03,21,09,45,12.70
2013,03,21,09,46,10.90
2013,03,21,09,47,16.20
2013,03,21,09,48,6.70
2013,03,21,09,49,4.10
2013,03,21,09,50,6.40
2013,03,21,09,51,12.40
2013,03,21,09,52,13.40
2013,03,21,09,53,11.60
2013,03,21,09,54,6.30
2013,03,21,09,55,8.60
2013,03,21,09,56,13.70
2013,03,21,09,57,6.80
2013,03,21,09,58,12.30
2013,03,21,09,59,16.10
2013,03,21,10,00,7.30
2013,03,21,10,01,11.90
2013,03,21,10,02,10.80
2013,03,21,10,03,9.50
2013,03,21,10,04,11.00
2013,03,21,10,05,8.40
2013,03,21,10,06,5.20
2013,03,21,10,07,8.00
2013,03,21,10,08,13.00
2013,03,21,10,09,11.40
2013,03,21,10,10,10.20
2013,03,21,10,11,11.10
2013,03,21,10,12,12.40
2013,03,21,10,13,10.20
2013,03,21,10,14,4.90
2013,03,21,10,15,4.30
2013,03,21,10,16,6.00
2013,03,21,10,17,8.70
2013,03,21,10,18,6.90
2013,03,21,10,19,6.90
2013,03,21,10,20,5.80
2013,03,21,10,21,9.40
2013,03,21,10,22,7.30
2013,03,21,10,23,4.60
2013,03,21,10,24,3.90
2013,03,21,10,25,4.30
2013,03,21,10,26,3.90
2013,03,21,10,27,2.80
2013,03,21,10,28,3.50
2013,03,21,10,29,0.20
2013,03,21,10,30,0.10
2013,03,21,10,31,5.30
2013,03,21,10,32,3.90
2013,03,21,10,33,5.50
2013,03,21,10,34,0.10
2013,03,21,10,35,4.70
2013,03,21,10,36,6.90
2013,03,21,10,37,4.20
2013,03,21,10,38,5.00
2013,03,21,10,39,4.60
2013,03,21,10,40,7.80
2013,03,21,10,41,6.80
2013,03,21,10,42,1.60
2013,03,21,10,43,0.10
2013,03,21,10,44,1.70
2013,03,21,10,45,5.70
2013,03,21,10,46,5.30
2013,03,21,10,47,3.20
2013,03,21,10,48,7.50
2013,03,21,10,49,8.40
2013,03,21,10,50,5.10
2013,03,21,10,51,5.00
2013,03,21,10,52,3.10
2013,03,21,10,53,5.60
2013,03,21,10,54,7.20
2013,03,21,10,55,9.00
2013,03,21,10,56,8.70
2013,03,21,10,57,7.70
2013,03,21,10,58,12.70
2013,03,21,10,59,13.50
2013,03,21,11,00,13.00
2013,03,21,11,01,9.10
2013,03,21,11,02,10.30
2013,03,21,11,03,8.50
2013,03,21,11,04,2.30
2013,03,21,11,05,12.40
2013,03,21,11,06,8.10
2013,03,21,11,07,7.90
2013,03,21,11,08,8.60
2013,03,21,11,09,4.20
2013,03,21,11,10,5.50
2013,03,21,11,11,6.90
2013,03,21,11,12,6.40
2013,03,21,11,13,8.90
2013,03,21,11,14,11.70
2013,03,21,11,15,5.40
2013,03,21,11,16,5.30
2013,03,21,11,17,1.50
2013,03,21,11,18,6.50
2013,03,21,11,19,8.80
2013,03,21,11,20,8.90
2013,03,21,11,21,8.70
2013,03,21,11,22,9.70
2013,03,21,11,23,5.20
2013,03,21,11,24,8.20
2013,03,21,11,25,6.30
2013,03,21,11,26,11.00
2013,03,21,11,27,6.10
2013,03,21,11,28,4.00
2013,03,21,11,29,2.90
2013,03,21,11,30,6.50
2013,03,21,11,31,5.10
2013,03,21,11,32,3.00
2013,03,21,11,33,4.00
2013,03,21,11,34,5.60
2013,03,21,11,35,0.80
2013,03,21,11,36,0.90
2013,03,21,11,37,0.50
2013,03,21,11,38,0.40
2013,03,21,11,39,2.20
2013,03,21,11,40,1.40
2013,03,21,11,41,0.20
2013,03,21,11,42,1.90
2013,03,21,11,43,2.10
2013,03,21,11,44,3.00
2013,03,21,11,45,6.90
2013,03,21,11,46,4.90
2013,03,21,11,47,7.10
2013,03,21,11,48,9.30
2013,03,21,11,49,9.30
2013,03,21,11,50,8.90
2013,03,21,11,51,7.80
2013,03,21,11,52,6.40
2013,03,21,11,53,7.30
2013,03,21,11,54,2.20
2013,03,21,11,55,5.50
2013,03,21,11,56,6.80
2013,03,21,11,57,12.20
2013,03,21,11,58,15.10
2013,03,21,11,59,13.00
2013,03,21,12,00,11.50
2013,03,21,12,01,12.40
2013,03,21,12,02,10.60
2013,03,21,12,03,13.10
2013,03,21,12,04,13.00
2013,03,21,12,05,13.60
2013,03,21,12,06,13.40
2013,03,21,12,07,13.70
2013,03,21,12,08,12.10
2013,03,21,12,09,7.70
2013,03,21,12,10,9.80
2013,03,21,12,11,10.90
2013,03,21,12,12,7.80
2013,03,21,12,13,4.10
2013,03,21,12,14,6.60
2013,03,21,12,15,8.80
2013,03,21,12,16,7.00
2013,03,21,12,17,10.80
2013,03,21,12,18,12.00
2013,03,21,12,19,8.70
2013,03,21,12,20,12.20
2013,03,21,12,21,13.40
2013,03,21,12,22,8.30
2013,03,21,12,23,0.10
2013,03,21,12,24,5.80
2013,03,21,12,25,9.60
2013,03,21,12,26,7.60
2013,03,21,12,27,10.10
2013,03,21,12,28,6.90
2013,03,21,12,29,7.10
2013,03,21,12,30,12.20
2013,03,21,12,31,9.20
2013,03,21,12,32,11.10
2013,03,21,12,33,13.30
2013,03,21,12,34,16.40
2013,03,21,12,35,13.40
2013,03,21,12,36,11.10
2013,03,21,12,37,8.00
2013,03,21,12,38,7.90
2013,03,21,12,39,8.40
2013,03,21,12,40,5.30
2013,03,21,12,41,12.40
2013,03,21,12,42,13.90
2013,03,21,12,43,2.30
2013,03,21,12,44,7.20
2013,03,21,12,45,5.90
2013,03,21,12,46,2.80
2013,03,21,12,47,1.80
2013,03,21,12,48,1.70
2013,03,21,12,49,2.00
2013,03,21,12,50,8.60
2013,03,21,12,51,7.10
2013,03,21,12,52,8.40
2013,03,21,12,53,2.80
2013,03,21,12,54,2.90
2013,03,21,12,55,12.80
2013,03,21,12,56,6.30
2013,03,21,12,57,11.40
2013,03,21,12,58,8.30
2013,03,21,12,59,11.10
2013,03,21,13,00,13.20
2013,03,21,13,01,9.60
2013,03,21,13,02,4.20
2013,03,21,13,03,0.70
2013,03,21,13,04,3.30
2013,03,21,13,05,4.30
2013,03,21,13,06,13.10
2013,03,21,13,07,9.20
2013,03,21,13,08,12.40
2013,03,21,13,09,7.90
2013,03,21,13,10,2.80
2013,03,21,13,11,6.00
2013,03,21,13,12,7.00
2013,03,21,13,13,5.70
2013,03,21,13,14,3.50
2013,03,21,13,15,1.80
2013,03,21,13,16,2.70
2013,03,21,13,17,1.80
2013,03,21,13,18,1.10
2013,03,21,13,19,1.60
2013,03,21,13,20,1.40
2013,03,21,13,21,3.00
2013,03,21,13,22,1.50
2013,03,21,13,23,1.20
2013,03,21,13,24,1.40
2013,03,21,13,25,4.50
2013,03,21,13,26,2.70
2013,03,21,13,27,0.60
2013,03,21,13,28,5.30
2013,03,21,13,29,2.50
2013,03,21,13,30,1.40
2013,03,21,13,31,0.20
2013,03,21,13,32,0.00
2013,03,21,13,33,0.90
2013,03,21,13,34,0.40
2013,03,21,13,35,5.30
2013,03,21,13,36,2.80
2013,03,21,13,37,1.30
2013,03,21,13,38,3.00
2013,03,21,13,39,6.70
2013,03,21,13,40,7.20
2013,03,21,13,41,0.60
2013,03,21,13,42,0.20
2013,03,21,13,43,4.50
2013,03,21,13,44,3.30
2013,03,21,13,45,4.70
2013,03,21,13,46,2.20
2013,03,21,13,47,9.40
2013,03,21,13,48,5.00
2013,03,21,13,49,7.70
2013,03,21,13,50,2.10
2013,03,21,13,51,2.10
2013,03,21,13,52,1.90
2013,03,21,13,53,2.40
2013,03,21,13,54,0.40
2013,03,21,13,55,1.10
2013,03,21,13,56,1.70
2013,03,21,13,57,0.30
2013,03,21,13,58,0.30
2013,03,21,13,59,1.20
2013,03,21,14,00,0.20
2013,03,21,14,01,1.30
2013,03,21,14,02,0.90
2013,03,21,14,03,0.30
2013,03,21,14,04,1.60
2013,03,21,14,05,0.40
2013,03,21,14,06,2.30
2013,03,21,14,07,1.80
2013,03,21,14,08,1.00
2013,03,21,14,09,0.10
2013,03,21,14,10,0.10
2013,03,21,14,11,4.20
2013,03,21,14,12,4.50
2013,03,21,14,13,2.50
2013,03,21,14,14,0.60
2013,03,21,14,15,0.30
2013,03,21,14,16,1.10
2013,03,21,14,17,0.00
2013,03,21,14,18,3.10
2013,03,21,14,19,1.70
2013,03,21,14,20,9.20
2013,03,21,14,21,3.10
2013,03,21,14,22,0.90
2013,03,21,14,23,2.20
2013,03,21,14,24,0.10
2013,03,21,14,25,0.10
2013,03,21,14,26,0.10
2013,03,21,14,27,0.80
2013,03,21,14,28,2.50
2013,03,21,14,29,0.70
2013,03,21,14,30,2.50
2013,03,21,14,31,1.90
2013,03,21,14,32,0.00
2013,03,21,14,33,0.00
2013,03,21,14,34,1.40
2013,03,21,14,35,1.80
2013,03,21,14,36,0.30
2013,03,21,14,37,0.10
2013,03,21,14,38,0.10
2013,03,21,14,39,0.20
2013,03,21,14,40,1.70
2013,03,21,14,41,0.90
2013,03,21,14,42,3.60
2013,03,21,14,43,1.30
2013,03,21,14,44,1.90
2013,03,21,14,45,0.70
2013,03,21,14,46,8.00
2013,03,21,14,47,5.20
2013,03,21,14,48,3.10
2013,03,21,14,49,0.60
2013,03,21,14,50,0.20
2013,03,21,14,51,4.80
2013,03,21,14,52,4.70
2013,03,21,14,53,4.00
2013,03,21,14,54,2.30
2013,03,21,14,55,7.10
2013,03,21,14,56,6.40
2013,03,21,14,57,5.90
2013,03,21,14,58,4.70
2013,03,21,14,59,3.70
2013,03,21,15,00,5.60
2013,03,21,15,01,5.10
2013,03,21,15,02,2.10
2013,03,21,15,03,3.10
2013,03,21,15,04,2.00
2013,03,21,15,05,1.00
2013,03,21,15,06,4.10
2013,03,21,15,07,5.40
2013,03,21,15,08,4.20
2013,03,21,15,09,9.50
2013,03,21,15,10,12.50
2013,03,21,15,11,15.90
2013,03,21,15,12,10.30
2013,03,21,15,13,9.50
2013,03,21,15,14,5.70
2013,03,21,15,15,9.30
2013,03,21,15,16,14.00
2013,03,21,15,17,13.00
2013,03,21,15,18,13.00
2013,03,21,15,19,9.70
2013,03,21,15,20,10.20
2013,03,21,15,21,9.30
2013,03,21,15,22,9.70
2013,03,21,15,23,7.20
2013,03,21,15,24,8.80
2013,03,21,15,25,9.70
2013,03,21,15,26,17.40
2013,03,21,15,27,12.30
2013,03,21,15,28,9.90
2013,03,21,15,29,6.70
2013,03,21,15,30,4.90
2013,03,21,15,31,9.70
2013,03,21,15,32,11.80
2013,03,21,15,33,8.40
2013,03,21,15,34,7.00
2013,03,21,15,35,9.50
2013,03,21,15,36,11.20
2013,03,21,15,37,4.40
2013,03,21,15,38,8.70
2013,03,21,15,39,6.40
2013,03,21,15,40,9.20
2013,03,21,15,41,11.50
2013,03,21,15,42,11.80
2013,03,21,15,43,12.10
2013,03,21,15,44,11.10
2013,03,21,15,45,18.10
2013,03,21,15,46,12.60
2013,03,21,15,47,14.60
2013,03,21,15,48,16.40
2013,03,21,15,49,11.50
2013,03,21,15,50,7.80
2013,03,21,15,51,7.50
2013,03,21,15,52,3.30
2013,03,21,15,53,6.90
2013,03,21,15,54,6.40
2013,03,21,15,55,16.80
2013,03,21,15,56,8.90
2013,03,21,15,57,11.10
2013,03,21,15,58,13.60
2013,03,21,15,59,12.20
2013,03,21,16,00,9.10
2013,03,21,16,01,9.00
2013,03,21,16,02,7.20
2013,03,21,16,03,4.70
2013,03,21,16,04,5.60
2013,03,21,16,05,7.30
2013,03,21,16,06,9.00
2013,03,21,16,07,6.10
2013,03,21,16,08,8.10
2013,03,21,16,09,7.20
2013,03,21,16,10,6.50
2013,03,21,16,11,10.70
2013,03,21,16,12,12.50
2013,03,21,16,13,7.80
2013,03,21,16,14,6.20
2013,03,21,16,15,4.90
2013,03,21,16,16,10.60
2013,03,21,16,17,9.60
2013,03,21,16,18,7.00
2013,03,21,16,19,10.30
2013,03,21,16,20,8.40
2013,03,21,16,21,8.80
2013,03,21,16,22,10.80
2013,03,21,16,23,14.60
2013,03,21,16,24,15.30
2013,03,21,16,25,8.50
2013,03,21,16,26,12.20
2013,03,21,16,27,11.20
2013,03,21,16,28,10.60
2013,03,21,16,29,6.80
2013,03,21,16,30,11.00
2013,03,21,16,31,8.40
2013,03,21,16,32,8.10
2013,03,21,16,33,12.60
2013,03,21,16,34,13.10
2013,03,21,16,35,10.60
2013,03,21,16,36,11.70
2013,03,21,16,37,10.10
2013,03,21,16,38,14.70
2013,03,21,16,39,15.80
2013,03,21,16,40,9.70
2013,03,21,16,41,16.50
2013,03,21,16,42,22.00
2013,03,21,16,43,18.00
2013,03,21,16,44,16.60
2013,03,21,16,45,13.70
2013,03,21,16,46,16.60
2013,03,21,16,47,20.00
2013,03,21,16,48,16.00
2013,03,21,16,49,16.80
2013,03,21,16,50,15.60
2013,03,21,16,51,19.70
2013,03,21,16,52,17.90
2013,03,21,16,53,19.70
2013,03,21,16,54,16.30
2013,03,21,16,55,6.60
2013,03,21,16,56,14.60
2013,03,21,16,57,18.00
2013,03,21,16,58,7.80
2013,03,21,16,59,14.30
2013,03,21,17,00,26.70
2013,03,21,17,01,18.50
2013,03,21,17,02,18.50
2013,03,21,17,03,17.50
2013,03,21,17,04,21.10
2013,03,21,17,05,18.50
2013,03,21,17,06,9.50
2013,03,21,17,07,10.20
2013,03,21,17,08,14.60
2013,03,21,17,09,8.80
2013,03,21,17,10,14.50
2013,03,21,17,11,4.70
2013,03,21,17,12,6.50
2013,03,21,17,13,11.80
2013,03,21,17,14,20.00
2013,03,21,17,15,15.10
2013,03,21,17,16,15.80
2013,03,21,17,17,20.40
2013,03,21,17,18,14.50
2013,03,21,17,19,17.80
2013,03,21,17,20,9.80
2013,03,21,17,21,9.50
2013,03,21,17,22,6.90
2013,03,21,17,23,2.90
2013,03,21,17,24,4.80
2013,03,21,17,25,12.20
2013,03,21,17,26,5.10
2013,03,21,17,27,8.90
2013,03,21,17,28,6.10
2013,03,21,17,29,1.40
2013,03,21,17,30,5.30
2013,03,21,17,31,13.40
2013,03,21,17,32,7.20
2013,03,21,17,33,8.10
2013,03,21,17,34,7.00
2013,03,21,17,35,2.30
2013,03,21,17,36,1.20
2013,03,21,17,37,3.10
2013,03,21,17,38,1.90
2013,03,21,17,39,1.90
2013,03,21,17,40,1.70
2013,03,21,17,41,1.50